• In Hungary
  • List of Countries
  • For 7 days
  • Water Temperature
  • Satellite Maps
  • Weather Map
  • News
  • Weather Widgets
  • user-avatar
    Login

    Hourly Weather SanFrancisco

    Today, 18 June, Monday

    Time Temperature Precipitation Wind Pressure Humidity
    00:00 +26°C° 0 mm 4 mps 710 mmHg 68%
    01:00 +25°C° 0 mm 4 mps 709 mmHg 69%
    02:00 +25°C° 0 mm 3 mps 709 mmHg 69%
    03:00 +25°C° 0 mm 3 mps 709 mmHg 70%
    04:00 +24°C° 0 mm 3 mps 709 mmHg 71%
    05:00 +25°C° 0 mm 3 mps 709 mmHg 68%
    06:00 +26°C° 0 mm 3 mps 709 mmHg 65%
    07:00 +27°C° 0 mm 3 mps 710 mmHg 62%
    08:00 +29°C° 0 mm 3 mps 710 mmHg 54%
    09:00 +31°C° 0 mm 3 mps 711 mmHg 47%
    10:00 +35°C° 0 mm 3 mps 711 mmHg 40%
    11:00 +35°C° 0 mm 3 mps 711 mmHg 39%
    12:00 +36°C° 0 mm 3 mps 711 mmHg 37%
    13:00 +37°C° 0 mm 3 mps 710 mmHg 35%
    14:00 +36°C° 0.2 mm 4 mps 710 mmHg 40%
    15:00 +35°C° 0.2 mm 4 mps 709 mmHg 44%
    16:00 +34°C° 0.2 mm 5 mps 709 mmHg 49%
    17:00 +32°C° 0.9 mm 4 mps 709 mmHg 55%
    18:00 +29°C° 0.9 mm 4 mps 709 mmHg 61%
    19:00 +27°C° 0.9 mm 3 mps 709 mmHg 67%
    20:00 +27°C° 0.1 mm 3 mps 709 mmHg 66%
    21:00 +26°C° 0.1 mm 3 mps 709 mmHg 66%
    22:00 +26°C° 0.1 mm 3 mps 710 mmHg 66%
    23:00 +26°C° 0.5 mm 3 mps 709 mmHg 66%

    Tomorrow, 19 June, Tuesday

    Time Temperature Precipitation Wind Pressure Humidity
    00:00 +25°C° 0.5 mm 2 mps 709 mmHg 66%
    01:00 +25°C° 0.5 mm 2 mps 709 mmHg 66%
    02:00 +25°C° 0.1 mm 2 mps 709 mmHg 66%
    03:00 +25°C° 0.1 mm 2 mps 709 mmHg 66%
    04:00 +24°C° 0.1 mm 2 mps 708 mmHg 67%
    05:00 +25°C° 0 mm 2 mps 709 mmHg 66%
    06:00 +25°C° 0 mm 2 mps 709 mmHg 65%
    07:00 +26°C° 0 mm 2 mps 710 mmHg 63%
    08:00 +28°C° 0.1 mm 2 mps 710 mmHg 57%
    09:00 +30°C° 0.1 mm 2 mps 711 mmHg 50%
    10:00 +32°C° 0.1 mm 2 mps 711 mmHg 44%
    11:00 +34°C° 0 mm 3 mps 711 mmHg 41%
    12:00 +35°C° 0 mm 3 mps 710 mmHg 38%
    13:00 +36°C° 0 mm 4 mps 710 mmHg 35%
    14:00 +35°C° 0.1 mm 4 mps 709 mmHg 41%
    15:00 +33°C° 0.1 mm 5 mps 709 mmHg 47%
    16:00 +32°C° 0.1 mm 6 mps 709 mmHg 53%
    17:00 +29°C° 1.2 mm 5 mps 709 mmHg 59%
    18:00 +28°C° 1.2 mm 4 mps 709 mmHg 65%
    19:00 +26°C° 1.2 mm 3 mps 709 mmHg 71%
    20:00 +26°C° 0.3 mm 3 mps 710 mmHg 71%
    21:00 +25°C° 0.3 mm 3 mps 710 mmHg 71%
    22:00 +25°C° 0.3 mm 2 mps 710 mmHg 71%
    23:00 +25°C° 0.1 mm 2 mps 710 mmHg 71%

    Day after tomorrow, 20 June, Wednesday

    Time Temperature Precipitation Wind Pressure Humidity
    00:00 +24°C° 0.1 mm 2 mps 710 mmHg 72%
    01:00 +24°C° 0.1 mm 2 mps 709 mmHg 72%
    02:00 +24°C° 0 mm 2 mps 709 mmHg 73%
    03:00 +23°C° 0 mm 2 mps 709 mmHg 73%
    04:00 +23°C° 0 mm 2 mps 709 mmHg 74%
    05:00 +24°C° 0 mm 1 mps 709 mmHg 72%
    06:00 +24°C° 0 mm 1 mps 710 mmHg 70%
    07:00 +25°C° 0 mm 1 mps 710 mmHg 68%
    08:00 +27°C° 0.1 mm 1 mps 711 mmHg 60%
    09:00 +30°C° 0.1 mm 1 mps 711 mmHg 53%
    10:00 +32°C° 0.1 mm 1 mps 711 mmHg 45%
    11:00 +34°C° 0.2 mm 2 mps 711 mmHg 44%
    12:00 +35°C° 0.2 mm 2 mps 711 mmHg 42%
    13:00 +35°C° 0.2 mm 2 mps 710 mmHg 40%
    14:00 +34°C° 1.2 mm 3 mps 710 mmHg 45%
    15:00 +33°C° 1.2 mm 3 mps 709 mmHg 51%
    16:00 +31°C° 1.2 mm 3 mps 708 mmHg 56%
    17:00 +30°C° 1.7 mm 3 mps 709 mmHg 63%
    18:00 +28°C° 1.7 mm 2 mps 709 mmHg 70%
    19:00 +26°C° 1.7 mm 2 mps 709 mmHg 77%
    20:00 +26°C° 0.1 mm 2 mps 710 mmHg 78%
    21:00 +26°C° 0.1 mm 2 mps 710 mmHg 79%
    22:00 +25°C° 0.1 mm 2 mps 710 mmHg 81%
    23:00 +25°C° 0.1 mm 2 mps 710 mmHg 81%

    21 June, Thursday

    Time Temperature Precipitation Wind Pressure Humidity
    00:00 +25°C° 0.1 mm 2 mps 710 mmHg 81%
    01:00 +24°C° 0.1 mm 2 mps 710 mmHg 81%
    02:00 +24°C° 0 mm 2 mps 709 mmHg 81%
    03:00 +24°C° 0 mm 2 mps 709 mmHg 81%
    04:00 +23°C° 0 mm 2 mps 709 mmHg 81%
    05:00 +24°C° 0 mm 2 mps 710 mmHg 77%
    06:00 +25°C° 0 mm 2 mps 710 mmHg 74%
    07:00 +26°C° 0 mm 2 mps 710 mmHg 70%
    08:00 +28°C° 0 mm 3 mps 711 mmHg 61%
    09:00 +30°C° 0 mm 3 mps 711 mmHg 53%
    10:00 +34°C° 0 mm 3 mps 712 mmHg 44%
    11:00 +35°C° 0 mm 3 mps 711 mmHg 41%
    12:00 +36°C° 0 mm 3 mps 711 mmHg 39%
    13:00 +37°C° 0 mm 3 mps 710 mmHg 36%
    14:00 +36°C° 0.2 mm 4 mps 709 mmHg 41%
    15:00 +35°C° 0.2 mm 4 mps 709 mmHg 45%
    16:00 +33°C° 0.2 mm 4 mps 708 mmHg 49%
    17:00 +32°C° 0.7 mm 4 mps 709 mmHg 56%
    18:00 +29°C° 0.7 mm 3 mps 709 mmHg 63%
    19:00 +27°C° 0.7 mm 3 mps 709 mmHg 70%
    20:00 +27°C° 0 mm 3 mps 710 mmHg 72%
    21:00 +26°C° 0 mm 3 mps 710 mmHg 74%
    22:00 +26°C° 0 mm 3 mps 710 mmHg 76%
    23:00 +25°C° 0.1 mm 3 mps 710 mmHg 77%

    22 June, Friday

    Time Temperature Precipitation Wind Pressure Humidity
    00:00 +25°C° 0.1 mm 3 mps 710 mmHg 78%
    01:00 +24°C° 0.1 mm 3 mps 709 mmHg 79%
    02:00 +24°C° 0 mm 3 mps 709 mmHg 79%
    03:00 +24°C° 0 mm 3 mps 709 mmHg 80%
    04:00 +23°C° 0 mm 2 mps 709 mmHg 80%
    05:00 +24°C° 0 mm 3 mps 709 mmHg 76%
    06:00 +25°C° 0 mm 3 mps 710 mmHg 72%
    07:00 +26°C° 0 mm 3 mps 710 mmHg 68%
    08:00 +29°C° 0 mm 3 mps 710 mmHg 59%
    09:00 +32°C° 0 mm 4 mps 711 mmHg 50%
    10:00 +34°C° 0 mm 4 mps 711 mmHg 41%
    11:00 +36°C° 0 mm 4 mps 710 mmHg 38%
    12:00 +37°C° 0 mm 4 mps 710 mmHg 35%
    13:00 +39°C° 0 mm 5 mps 709 mmHg 32%
    14:00 +37°C° 0 mm 4 mps 709 mmHg 34%
    15:00 +37°C° 0 mm 4 mps 708 mmHg 36%
    16:00 +36°C° 0 mm 4 mps 708 mmHg 38%
    17:00 +34°C° 0.3 mm 4 mps 708 mmHg 48%
    18:00 +30°C° 0.3 mm 4 mps 708 mmHg 57%
    19:00 +28°C° 0.3 mm 4 mps 708 mmHg 66%
    20:00 +27°C° 0.3 mm 4 mps 709 mmHg 69%
    21:00 +27°C° 0.3 mm 4 mps 709 mmHg 71%
    22:00 +26°C° 0.3 mm 4 mps 710 mmHg 73%
    23:00 +26°C° 0.1 mm 4 mps 709 mmHg 73%

    23 June, Saturday

    Time Temperature Precipitation Wind Pressure Humidity
    00:00 +25°C° 0.1 mm 4 mps 709 mmHg 73%
    01:00 +25°C° 0.1 mm 4 mps 708 mmHg 74%
    02:00 +25°C° 0 mm 4 mps 708 mmHg 74%
    03:00 +23°C° 0 mm 4 mps 708 mmHg 74%
    04:00 +23°C° 0 mm 4 mps 708 mmHg 74%
    05:00 +25°C° 0 mm 4 mps 709 mmHg 70%
    06:00 +26°C° 0 mm 4 mps 709 mmHg 67%
    07:00 +27°C° 0 mm 5 mps 710 mmHg 64%
    08:00 +29°C° 0 mm 5 mps 710 mmHg 56%
    09:00 +33°C° 0 mm 5 mps 710 mmHg 48%
    10:00 +35°C° 0 mm 6 mps 710 mmHg 40%
    11:00 +36°C° 0 mm 6 mps 710 mmHg 38%
    12:00 +36°C° 0 mm 6 mps 709 mmHg 36%
    13:00 +38°C° 0 mm 6 mps 709 mmHg 34%
    14:00 +36°C° 0 mm 6 mps 708 mmHg 37%
    15:00 +35°C° 0 mm 5 mps 708 mmHg 40%
    16:00 +34°C° 0 mm 5 mps 707 mmHg 43%
    17:00 +33°C° 0.2 mm 5 mps 708 mmHg 50%
    18:00 +30°C° 0.2 mm 5 mps 708 mmHg 56%
    19:00 +28°C° 0.2 mm 4 mps 708 mmHg 63%
    20:00 +27°C° 0 mm 5 mps 709 mmHg 68%
    21:00 +26°C° 0 mm 5 mps 709 mmHg 73%
    22:00 +26°C° 0 mm 5 mps 709 mmHg 78%
    23:00 +25°C° 0 mm 5 mps 709 mmHg 79%
    Show more